| time (UTC) | temp C | wind direction | speed KPH | gust KPH | rain 1hr cm | rain 24hr cm | rain mn cm | humidity % | barometer mb |
| 20260506132252 | 8 | 342 | 14.5 | 20.9 | 0.00 | 2.90 | 0.46 | 82 | 1010.2 |
| 20260506131251 | 8 | 341 | 11.3 | 17.7 | 0.00 | 2.90 | 0.46 | 82 | 1009.8 |
| 20260506130250 | 8 | 352 | 9.7 | 16.1 | 0.00 | 2.90 | 0.46 | 84 | 1009.8 |
| 20260506125249 | 7 | 350 | 8.0 | 16.1 | 0.00 | 2.90 | 0.46 | 86 | 1009.4 |
| 20260506124249 | 7 | 353 | 6.4 | 14.5 | 0.00 | 2.90 | 0.46 | 88 | 1009.1 |
| 20260506123217 | 7 | 354 | 9.7 | 14.5 | 0.00 | 2.90 | 0.46 | 88 | 1009.1 |
| 20260506122216 | 7 | 354 | 8.0 | 14.5 | 0.00 | 2.90 | 0.46 | 89 | 1008.7 |
| 20260506121215 | 7 | 348 | 8.0 | 14.5 | 0.00 | 2.90 | 0.46 | 89 | 1008.7 |
| 20260506120214 | 7 | 349 | 9.7 | 14.5 | 0.00 | 2.90 | 0.46 | 89 | 1008.7 |
| 20260506115142 | 7 | 342 | 8.0 | 14.5 | 0.00 | 2.90 | 0.46 | 92 | 1008.7 |
| 20260506114141 | 7 | 339 | 9.7 | 11.3 | 0.00 | 2.90 | 0.46 | 92 | 1008.8 |
| 20260506113141 | 7 | 332 | 4.8 | 11.3 | 0.00 | 2.90 | 0.46 | 93 | 1008.7 |
| 20260506112140 | 7 | 330 | 3.2 | 6.4 | 0.00 | 2.90 | 0.46 | 93 | 1008.4 |
| 20260506111139 | 7 | 332 | 3.2 | 6.4 | 0.00 | 2.90 | 0.46 | 92 | 1008.1 |
| 20260506110138 | 7 | 318 | 1.6 | 4.8 | 0.00 | 2.90 | 0.46 | 92 | 1007.7 |
| 20260506105137 | 7 | 325 | 3.2 | 8.0 | 0.00 | 2.90 | 0.46 | 92 | 1007.7 |
| 20260506104136 | 7 | 342 | 3.2 | 11.3 | 0.00 | 2.90 | 0.46 | 92 | 1007.7 |
| 20260506103135 | 7 | 359 | 8.0 | 11.3 | 0.00 | 2.90 | 0.46 | 92 | 1007.4 |
| 20260506102135 | 7 | 15 | 4.8 | 16.1 | 0.00 | 2.90 | 0.46 | 92 | 1007.1 |
| 20260506101134 | 7 | 358 | 8.0 | 16.1 | 0.00 | 2.90 | 0.46 | 93 | 1007.8 |
| 20260506100133 | 7 | 349 | 12.9 | 16.1 | 0.00 | 2.90 | 0.46 | 93 | 1007.8 |
| 20260506095132 | 7 | 359 | 6.4 | 8.0 | 0.00 | 2.90 | 0.46 | 93 | 1007.2 |
| 20260506094130 | 7 | 32 | 1.6 | 3.2 | 0.00 | 2.90 | 0.46 | 93 | 1006.5 |
| 20260506093129 | 7 | 0 | 1.6 | 4.8 | 0.03 | 2.90 | 0.46 | 93 | 1006.9 |
| 20260506092128 | 7 | 7 | 1.6 | 4.8 | 0.03 | 2.90 | 0.46 | 93 | 1007.3 |
| 20260506091128 | 7 | 9 | 3.2 | 11.3 | 0.03 | 2.90 | 0.46 | 93 | 1007.6 |
| 20260506090127 | 7 | 4 | 4.8 | 11.3 | 0.03 | 2.90 | 0.46 | 92 | 1007.9 |
| 20260506085055 | 7 | 1 | 4.8 | 8.0 | 0.08 | 2.90 | 0.46 | 93 | 1007.9 |
| 20260506084054 | 7 | 356 | 4.8 | 8.0 | 0.10 | 2.90 | 0.46 | 93 | 1007.9 |
| 20260506083053 | 7 | 3 | 4.8 | 8.0 | 0.10 | 2.87 | 0.43 | 92 | 1007.6 |
| 20260506082053 | 7 | 10 | 6.4 | 12.9 | 0.10 | 2.87 | 0.43 | 92 | 1007.6 |
| 20260506081052 | 7 | 9 | 6.4 | 12.9 | 0.13 | 2.87 | 0.43 | 92 | 1007.3 |
| 20260506073049 | 7 | 7 | 8.0 | 12.9 | 0.13 | 2.77 | 0.33 | 92 | 1007.7 |
| 20260506072048 | 7 | 27 | 6.4 | 12.9 | 0.15 | 2.77 | 0.33 | 93 | 1007.3 |
| 20260506071017 | 7 | 13 | 4.8 | 8.0 | 0.15 | 2.74 | 0.30 | 93 | 1007.7 |
| 20260506061911 | 7 | 70 | 1.6 | 4.8 | 0.10 | 2.62 | 0.18 | 93 | 1007.4 |
| 20260506060910 | 7 | 30 | 1.6 | 4.8 | 0.10 | 2.59 | 0.15 | 93 | 1007.5 |
| 20260506050659 | 7 | 64 | 1.6 | 6.4 | 0.05 | 2.49 | 0.05 | 91 | 1007.9 |
| 20260506044658 | 7 | 49 | 1.6 | 3.2 | 0.08 | 2.49 | 0.05 | 91 | 1007.5 |
| 20260506043658 | 7 | 90 | 3.2 | 4.8 | 0.08 | 2.46 | 0.03 | 90 | 1007.9 |
| 20260506042657 | 7 | 79 | 1.6 | 6.4 | 0.08 | 2.44 | 0.00 | 90 | 1007.9 |
| 20260506041656 | 7 | 87 | 1.6 | 9.7 | 0.10 | 2.44 | 0.00 | 89 | 1007.9 |
| 20260506040656 | 8 | 69 | 4.8 | 12.9 | 0.13 | 2.44 | 0.00 | 89 | 1007.9 |
| 20260506035655 | 8 | 55 | 8.0 | 14.5 | 0.15 | 2.41 | 2.41 | 90 | 1008.3 |
| 20260506034654 | 8 | 60 | 6.4 | 14.5 | 0.18 | 2.41 | 2.41 | 90 | 1008.3 |
| 20260506033654 | 8 | 53 | 4.8 | 8.0 | 0.23 | 2.39 | 2.39 | 93 | 1008.7 |
| 20260506032653 | 8 | 29 | 4.8 | 8.0 | 0.25 | 2.36 | 2.36 | 93 | 1008.7 |
| 20260506031652 | 8 | 15 | 1.6 | 8.0 | 0.28 | 2.34 | 2.34 | 94 | 1008.7 |
| 20260506030651 | 8 | 356 | 3.2 | 11.3 | 0.36 | 2.31 | 2.31 | 93 | 1008.7 |
| 20260506025651 | 9 | 5 | 4.8 | 11.3 | 0.36 | 2.26 | 2.26 | 93 | 1008.7 |
| 20260506024650 | 9 | 18 | 4.8 | 11.3 | 0.36 | 2.24 | 2.24 | 94 | 1008.7 |
| 20260506023649 | 9 | 18 | 3.2 | 6.4 | 0.36 | 2.16 | 2.16 | 94 | 1008.7 |
| 20260506022648 | 9 | 65 | 1.6 | 3.2 | 0.38 | 2.11 | 2.11 | 94 | 1008.7 |
| 20260506021647 | 9 | 65 | 0.0 | 6.4 | 0.38 | 2.06 | 2.06 | 94 | 1008.7 |
| 20260506020647 | 9 | 58 | 1.6 | 6.4 | 0.30 | 1.96 | 1.96 | 94 | 1008.3 |
| 20260506015615 | 9 | 55 | 1.6 | 3.2 | 0.28 | 1.91 | 1.91 | 94 | 1008.0 |
| 20260506014543 | 9 | 89 | 1.6 | 3.2 | 0.25 | 1.85 | 1.85 | 94 | 1007.6 |
| 20260506013542 | 9 | 82 | 0.0 | 3.2 | 0.18 | 1.78 | 1.78 | 94 | 1007.6 |
| 20260506012510 | 9 | 112 | 1.6 | 4.8 | 0.13 | 1.70 | 1.70 | 94 | 1007.6 |
| 20260506011336 | 9 | 90 | 1.6 | 6.4 | 0.10 | 1.68 | 1.68 | 94 | 1007.6 |
| 20260506010334 | 9 | 106 | 3.2 | 6.4 | 0.13 | 1.65 | 1.65 | 93 | 1007.6 |
| 20260506005333 | 9 | 78 | 3.2 | 4.8 | 0.13 | 1.63 | 1.63 | 93 | 1007.6 |
| 20260506004331 | 9 | 88 | 1.6 | 6.4 | 0.15 | 1.60 | 1.60 | 93 | 1007.6 |
| 20260506003330 | 9 | 63 | 1.6 | 8.0 | 0.23 | 1.60 | 1.60 | 93 | 1007.6 |
| 20260506002329 | 9 | 74 | 3.2 | 8.0 | 0.23 | 1.57 | 1.57 | 93 | 1007.6 |
| 20260506001328 | 10 | 45 | 4.8 | 12.9 | 0.23 | 1.57 | 1.57 | 93 | 1007.2 |
| 20260506000329 | 10 | 40 | 6.4 | 12.9 | 0.18 | 1.52 | 1.52 | 93 | 1007.2 |
| 20260505235325 | 10 | 44 | 4.8 | 8.0 | 0.18 | 1.50 | 1.50 | 93 | 1006.9 |
| 20260505234324 | 10 | 102 | 3.2 | 8.0 | 0.13 | 1.45 | 1.45 | 93 | 1006.6 |
| 20260505233324 | 10 | 71 | 3.2 | 8.0 | 0.08 | 1.37 | 1.37 | 93 | 1006.9 |
| 20260505232323 | 10 | 47 | 4.8 | 9.7 | 0.10 | 1.35 | 1.35 | 93 | 1006.9 |
| 20260505231251 | 10 | 71 | 3.2 | 11.3 | 0.23 | 1.35 | 1.35 | 93 | 1006.9 |
| 20260505230250 | 10 | 41 | 6.4 | 9.7 | 0.28 | 1.35 | 1.35 | 92 | 1006.9 |
| 20260505225250 | 10 | 79 | 3.2 | 14.5 | 0.28 | 1.32 | 1.32 | 92 | 1007.2 |
| 20260505224249 | 10 | 19 | 8.0 | 14.5 | 0.30 | 1.32 | 1.32 | 92 | 1007.6 |
| 20260505223248 | 10 | 15 | 6.4 | 19.3 | 0.33 | 1.27 | 1.27 | 91 | 1007.6 |
| 20260505222247 | 10 | 14 | 9.7 | 19.3 | 0.36 | 1.24 | 1.24 | 91 | 1007.6 |
| 20260505221246 | 10 | 27 | 9.7 | 22.5 | 0.30 | 1.12 | 1.12 | 90 | 1007.3 |
| 20260505220245 | 11 | 34 | 14.5 | 22.5 | 0.28 | 1.07 | 1.07 | 90 | 1006.7 |
| 20260505215213 | 12 | 30 | 14.5 | 20.9 | 0.33 | 1.04 | 1.04 | 90 | 1007.1 |
| 20260505214211 | 12 | 10 | 6.4 | 14.5 | 0.38 | 0.99 | 0.99 | 92 | 1006.8 |
| 20260505213139 | 12 | 5 | 6.4 | 14.5 | 0.43 | 0.94 | 0.94 | 90 | 1006.5 |
| 20260505212108 | 13 | 6 | 4.8 | 8.0 | 0.43 | 0.89 | 0.89 | 92 | 1006.5 |
| 20260505211036 | 13 | 325 | 3.2 | 11.3 | 0.43 | 0.81 | 0.81 | 93 | 1006.9 |
| 20260505210035 | 13 | 308 | 3.2 | 14.5 | 0.48 | 0.79 | 0.79 | 92 | 1006.6 |
| 20260505205033 | 13 | 310 | 4.8 | 19.3 | 0.46 | 0.71 | 0.71 | 91 | 1006.9 |
| 20260505204001 | 13 | 354 | 12.9 | 19.3 | 0.41 | 0.61 | 0.61 | 91 | 1006.9 |
| 20260505203000 | 13 | 325 | 4.8 | 11.3 | 0.36 | 0.51 | 0.51 | 92 | 1007.3 |
| 20260505201959 | 13 | 336 | 8.0 | 11.3 | 0.36 | 0.46 | 0.46 | 91 | 1007.0 |
| 20260505200926 | 13 | 335 | 4.8 | 9.7 | 0.30 | 0.38 | 0.38 | 92 | 1007.0 |
| 20260505195926 | 13 | 325 | 3.2 | 9.7 | 0.23 | 0.28 | 0.28 | 91 | 1007.0 |
| 20260505194924 | 13 | 321 | 3.2 | 9.7 | 0.23 | 0.25 | 0.25 | 90 | 1007.0 |
| 20260505193923 | 13 | 335 | 3.2 | 6.4 | 0.20 | 0.20 | 0.20 | 91 | 1007.0 |
| 20260505192921 | 13 | 305 | 3.2 | 6.4 | 0.15 | 0.15 | 0.15 | 90 | 1007.4 |
| 20260505191920 | 13 | 316 | 3.2 | 12.9 | 0.10 | 0.10 | 0.10 | 89 | 1007.4 |
| 20260505190919 | 13 | 322 | 6.4 | 12.9 | 0.08 | 0.08 | 0.08 | 87 | 1007.7 |
| 20260505185919 | 14 | 324 | 4.8 | 12.9 | 0.05 | 0.05 | 0.05 | 86 | 1007.4 |
| 20260505184918 | 14 | 326 | 6.4 | 14.5 | 0.03 | 0.03 | 0.03 | 85 | 1007.4 |
| 20260505183918 | 15 | 334 | 6.4 | 19.3 | 0.00 | 0.00 | 0.00 | 84 | 1007.4 |
| 20260505182917 | 15 | 322 | 8.0 | 19.3 | 0.00 | 0.00 | 0.00 | 82 | 1007.5 |
| 20260505181845 | 16 | 338 | 11.3 | 19.3 | 0.00 | 0.00 | 0.00 | 78 | 1007.5 |
| 20260505180844 | 16 | 331 | 11.3 | 27.4 | 0.00 | 0.00 | 0.00 | 75 | 1007.2 |
| 20260505175843 | 17 | 322 | 16.1 | 27.4 | 0.00 | 0.00 | 0.00 | 72 | 1007.5 |
| 20260505174843 | 17 | 316 | 14.5 | 30.6 | 0.00 | 0.00 | 0.00 | 72 | 1007.2 |
| 20260505173708 | 17 | 315 | 16.1 | 33.8 | 0.00 | 0.00 | 0.00 | 70 | 1007.2 |
| 20260505172707 | 17 | 308 | 19.3 | 33.8 | 0.00 | 0.00 | 0.00 | 68 | 1007.2 |
| 20260505171707 | 17 | 321 | 17.7 | 30.6 | 0.00 | 0.00 | 0.00 | 69 | 1007.2 |
| 20260505170706 | 17 | 321 | 14.5 | 30.6 | 0.00 | 0.00 | 0.00 | 70 | 1007.2 |
| 20260505165705 | 17 | 325 | 20.9 | 32.2 | 0.00 | 0.00 | 0.00 | 69 | 1007.1 |
| 20260505164704 | 17 | 323 | 14.5 | 38.6 | 0.00 | 0.00 | 0.00 | 69 | 1007.2 |
| 20260505163704 | 17 | 326 | 17.7 | 38.6 | 0.00 | 0.00 | 0.00 | 68 | 1007.2 |
| 20260505162703 | 17 | 329 | 20.9 | 37.0 | 0.00 | 0.00 | 0.00 | 67 | 1007.2 |
| 20260505161702 | 17 | 319 | 19.3 | 35.4 | 0.00 | 0.00 | 0.00 | 66 | 1007.1 |
| 20260505160702 | 17 | 318 | 17.7 | 35.4 | 0.00 | 0.00 | 0.00 | 66 | 1007.2 |
| 20260505152627 | 18 | 319 | 22.5 | 33.8 | 0.00 | 0.00 | 0.00 | 64 | 1006.5 |
| 20260505151627 | 18 | 301 | 19.3 | 35.4 | 0.00 | 0.00 | 0.00 | 61 | 1005.8 |
| 20260505150626 | 18 | 284 | 20.9 | 37.0 | 0.00 | 0.00 | 0.00 | 63 | 1005.9 |
| 20260505140519 | 17 | 305 | 16.1 | 35.4 | 0.00 | 0.00 | 0.00 | 67 | 1005.8 |